Tracking 20621 objects as of 30-Mar-2020
HD Live streaming from Space Station
objects crossing your sky now

SL-12 R/B(AUX MOTOR)

Track SL-12 R/B(AUX MOTOR) now!
10-day predictions


NORAD ID: 19856
Int'l Code: 1989-001H
Perigee: 627.7 km
Apogee: 18,811.7 km
Inclination: 65.1 °
Period: 338.5 minutes
Semi major axis: 16090 km
RCS: 0.7416 m2 (medium)
Launch date: January 10, 1989
Source: Commonwealth of Independent States (former USSR) (CIS)
Launch site: TYURATAM MISSILE AND SPACE COMPLEX (TTMTR)

Note: This is a ROCKET BODY
aabbcc
Your satellite tracking list
Your tracking list is empty




NASA's NSSDC Master Catalog

Two Line Element Set (TLE):
1 19856U 89001H   20089.49186442 -.00000016  00000-0 -28042-3 0  9992
2 19856  65.0507  87.1326 5650475 143.1662 273.9408  4.25344757483926
Source of the keplerian elements: AFSPC